| time (UTC) | temp F | wind direction | speed MPH | gust MPH | rain 1hr in | rain 24hr in | rain mn in | humidity % | barometer mb |
| 20260904234104 | 69 | 213 | 1.0 | 3.0 | 0.00 | 0.35 | 0.01 | 74 | 1011.7 |
| 20260904233605 | 69 | 210 | 2.0 | 3.0 | 0.00 | 0.35 | 0.01 | 74 | 1011.6 |
| 20260904233104 | 69 | 213 | 1.0 | 3.0 | 0.00 | 0.35 | 0.01 | 74 | 1011.6 |
| 20260904232606 | 69 | 212 | 1.0 | 3.0 | 0.00 | 0.36 | 0.01 | 75 | 1011.7 |
| 20260904232104 | 69 | 211 | 1.0 | 9.0 | 0.00 | 0.37 | 0.01 | 75 | 1011.7 |
| 20260904231606 | 69 | 211 | 3.0 | 9.0 | 0.00 | 0.37 | 0.01 | 74 | 1011.6 |
| 20260904230106 | 70 | 209 | 2.0 | 5.0 | 0.00 | 0.37 | 0.01 | 72 | 1011.5 |
| 20260904225604 | 70 | 209 | 2.0 | 5.0 | 0.00 | 0.37 | 0.01 | 71 | 1011.6 |
| 20260904225105 | 71 | 212 | 2.0 | 3.0 | 0.00 | 0.37 | 0.01 | 72 | 1011.7 |
| 20260904224106 | 71 | 212 | 1.0 | 3.0 | 0.00 | 0.37 | 0.01 | 72 | 1011.6 |
| 20260904223105 | 71 | 210 | 1.0 | 2.0 | 0.00 | 0.38 | 0.01 | 69 | 1011.6 |
| 20260904222604 | 72 | 210 | 1.0 | 3.0 | 0.00 | 0.38 | 0.01 | 68 | 1011.5 |
| 20260904222104 | 72 | 210 | 1.0 | 3.0 | 0.00 | 0.38 | 0.01 | 68 | 1011.4 |
| 20260904221605 | 71 | 210 | 1.0 | 3.0 | 0.00 | 0.38 | 0.01 | 69 | 1011.4 |
| 20260904221106 | 71 | 212 | 1.0 | 3.0 | 0.00 | 0.38 | 0.01 | 69 | 1011.5 |
| 20260904220606 | 71 | 209 | 1.0 | 3.0 | 0.00 | 0.38 | 0.01 | 68 | 1011.5 |
| 20260904220104 | 71 | 211 | 1.0 | 5.0 | 0.00 | 0.38 | 0.01 | 68 | 1011.5 |
| 20260904215605 | 70 | 212 | 1.0 | 5.0 | 0.00 | 0.38 | 0.01 | 68 | 1011.4 |
| 20260904215104 | 70 | 211 | 1.0 | 5.0 | 0.00 | 0.38 | 0.01 | 68 | 1011.3 |
| 20260904213605 | 69 | 210 | 1.0 | 3.0 | 0.00 | 0.38 | 0.01 | 71 | 1011.4 |
| 20260904213105 | 69 | 210 | 1.0 | 3.0 | 0.00 | 0.38 | 0.01 | 70 | 1011.2 |
| 20260904212605 | 69 | 209 | 1.0 | 3.0 | 0.00 | 0.38 | 0.01 | 70 | 1011.2 |
| 20260904212104 | 68 | 212 | 2.0 | 3.0 | 0.00 | 0.38 | 0.01 | 69 | 1011.3 |
| 20260904210105 | 69 | 212 | 1.0 | 3.0 | 0.00 | 0.38 | 0.01 | 69 | 1011.4 |
| 20260904204605 | 70 | 195 | 1.0 | 5.0 | 0.00 | 0.38 | 0.01 | 63 | 1011.3 |
| 20260904203605 | 71 | 228 | 2.0 | 3.0 | 0.00 | 0.38 | 0.01 | 62 | 1011.2 |
| 20260904203104 | 71 | 216 | 1.0 | 3.0 | 0.00 | 0.38 | 0.01 | 62 | 1011.3 |
| 20260904202605 | 71 | 218 | 1.0 | 6.0 | 0.00 | 0.38 | 0.01 | 63 | 1011.2 |
| 20260904202104 | 71 | 195 | 3.0 | 6.0 | 0.00 | 0.38 | 0.01 | 63 | 1011.2 |
| 20260904201605 | 71 | 213 | 2.0 | 6.0 | 0.00 | 0.38 | 0.01 | 63 | 1011.2 |
| 20260904201104 | 71 | 212 | 1.0 | 6.0 | 0.00 | 0.38 | 0.01 | 66 | 1011.2 |
| 20260904200604 | 71 | 229 | 2.0 | 5.0 | 0.00 | 0.38 | 0.01 | 66 | 1011.2 |
| 20260904200104 | 71 | 219 | 2.0 | 6.0 | 0.00 | 0.38 | 0.01 | 67 | 1011.2 |
| 20260904195604 | 70 | 195 | 2.0 | 6.0 | 0.00 | 0.38 | 0.01 | 66 | 1011.1 |
| 20260904195105 | 70 | 211 | 1.0 | 3.0 | 0.00 | 0.38 | 0.01 | 68 | 1011.1 |
| 20260904194605 | 70 | 214 | 2.0 | 3.0 | 0.00 | 0.38 | 0.01 | 67 | 1011.2 |
| 20260904194104 | 69 | 226 | 2.0 | 5.0 | 0.00 | 0.38 | 0.01 | 70 | 1011.1 |
| 20260904193106 | 69 | 230 | 2.0 | 5.0 | 0.00 | 0.38 | 0.01 | 67 | 1011.0 |
| 20260904192605 | 69 | 209 | 2.0 | 8.0 | 0.00 | 0.38 | 0.01 | 67 | 1011.1 |
| 20260904192104 | 69 | 219 | 3.0 | 8.0 | 0.00 | 0.38 | 0.01 | 65 | 1011.1 |
| 20260904191604 | 69 | 221 | 2.0 | 5.0 | 0.00 | 0.38 | 0.01 | 68 | 1011.2 |
| 20260904190604 | 68 | 224 | 2.0 | 5.0 | 0.00 | 0.38 | 0.01 | 69 | 1011.4 |
| 20260904190105 | 68 | 195 | 1.0 | 3.0 | 0.00 | 0.38 | 0.01 | 71 | 1011.3 |
| 20260904185604 | 67 | 228 | 1.0 | 3.0 | 0.00 | 0.38 | 0.01 | 72 | 1011.3 |
| 20260904185104 | 67 | 228 | 1.0 | 6.0 | 0.00 | 0.38 | 0.01 | 72 | 1011.3 |
| 20260904184604 | 66 | 228 | 2.0 | 6.0 | 0.00 | 0.38 | 0.01 | 71 | 1011.3 |
| 20260904184104 | 66 | 213 | 2.0 | 3.0 | 0.00 | 0.38 | 0.01 | 73 | 1011.2 |
| 20260904183605 | 65 | 228 | 2.0 | 5.0 | 0.00 | 0.38 | 0.01 | 74 | 1011.2 |
| 20260904183106 | 65 | 224 | 2.0 | 6.0 | 0.00 | 0.38 | 0.01 | 73 | 1011.2 |
| 20260904182604 | 64 | 201 | 2.0 | 6.0 | 0.00 | 0.38 | 0.01 | 75 | 1011.2 |
| 20260904182105 | 63 | 219 | 0.0 | 3.0 | 0.00 | 0.38 | 0.01 | 74 | 1011.2 |
| 20260904181606 | 63 | 219 | 2.0 | 3.0 | 0.00 | 0.38 | 0.01 | 74 | 1011.2 |
| 20260904181105 | 63 | 226 | 1.0 | 5.0 | 0.00 | 0.38 | 0.01 | 74 | 1011.1 |
| 20260904180606 | 63 | 225 | 1.0 | 5.0 | 0.00 | 0.38 | 0.01 | 74 | 1011.1 |
| 20260904180106 | 63 | 207 | 1.0 | 5.0 | 0.00 | 0.38 | 0.01 | 75 | 1011.1 |
| 20260904175604 | 64 | 224 | 1.0 | 5.0 | 0.00 | 0.38 | 0.01 | 76 | 1011.0 |
| 20260904175105 | 63 | 218 | 1.0 | 5.0 | 0.00 | 0.38 | 0.01 | 77 | 1011.0 |
| 20260904174604 | 63 | 226 | 2.0 | 5.0 | 0.00 | 0.39 | 0.01 | 80 | 1011.0 |
| 20260904174106 | 63 | 224 | 2.0 | 5.0 | 0.00 | 0.39 | 0.01 | 81 | 1010.9 |
| 20260904173604 | 62 | 229 | 1.0 | 3.0 | 0.00 | 0.39 | 0.01 | 84 | 1010.9 |
| 20260904173105 | 62 | 218 | 1.0 | 5.0 | 0.00 | 0.39 | 0.01 | 86 | 1010.9 |
| 20260904172604 | 61 | 231 | 1.0 | 5.0 | 0.00 | 0.39 | 0.01 | 88 | 1010.9 |
| 20260904171604 | 60 | 217 | 1.0 | 3.0 | 0.00 | 0.40 | 0.01 | 90 | 1010.8 |
| 20260904170604 | 60 | 218 | 1.0 | 3.0 | 0.00 | 0.40 | 0.01 | 91 | 1010.8 |
| 20260904165604 | 59 | 217 | 1.0 | 3.0 | 0.00 | 0.40 | 0.01 | 91 | 1010.7 |
| 20260904165106 | 59 | 217 | 1.0 | 6.0 | 0.00 | 0.40 | 0.01 | 92 | 1010.7 |
| 20260904164604 | 59 | 217 | 1.0 | 6.0 | 0.00 | 0.40 | 0.01 | 92 | 1010.7 |
| 20260904163604 | 59 | 224 | 1.0 | 3.0 | 0.00 | 0.40 | 0.01 | 92 | 1010.8 |
| 20260904163103 | 58 | 224 | 0.0 | 2.0 | 0.00 | 0.40 | 0.01 | 92 | 1010.8 |
| 20260904162104 | 58 | 224 | 0.0 | 2.0 | 0.00 | 0.42 | 0.01 | 92 | 1010.8 |
| 20260904161104 | 58 | 224 | 0.0 | 3.0 | 0.00 | 0.43 | 0.01 | 92 | 1010.8 |
| 20260904160104 | 57 | 224 | 0.0 | 0.0 | 0.00 | 0.43 | 0.01 | 92 | 1010.8 |
| 20260904155606 | 57 | 224 | 0.0 | 1.0 | 0.00 | 0.43 | 0.01 | 92 | 1010.7 |
| 20260904155104 | 56 | 224 | 0.0 | 1.0 | 0.00 | 0.43 | 0.01 | 92 | 1010.8 |
| 20260904154604 | 56 | 224 | 0.0 | 0.0 | 0.00 | 0.43 | 0.01 | 92 | 1010.9 |
| 20260904154106 | 56 | 224 | 0.0 | 0.0 | 0.00 | 0.43 | 0.01 | 92 | 1010.8 |
| 20260904153606 | 55 | 224 | 0.0 | 1.0 | 0.00 | 0.43 | 0.01 | 92 | 1010.7 |
| 20260904153105 | 55 | 224 | 0.0 | 1.0 | 0.00 | 0.43 | 0.01 | 92 | 1010.7 |
| 20260904152604 | 55 | 224 | 0.0 | 0.0 | 0.00 | 0.43 | 0.01 | 92 | 1010.6 |
| 20260904151604 | 53 | 224 | 0.0 | 0.0 | 0.00 | 0.43 | 0.01 | 92 | 1010.3 |
| 20260904151106 | 53 | 224 | 0.0 | 0.0 | 0.00 | 0.43 | 0.01 | 92 | 1010.3 |
| 20260904150604 | 52 | 224 | 0.0 | 0.0 | 0.00 | 0.43 | 0.01 | 92 | 1010.3 |
| 20260904150105 | 51 | 224 | 0.0 | 0.0 | 0.00 | 0.43 | 0.01 | 92 | 1010.3 |
| 20260904145605 | 50 | 224 | 0.0 | 0.0 | 0.00 | 0.43 | 0.01 | 91 | 1010.3 |
| 20260904145104 | 49 | 224 | 0.0 | 0.0 | 0.00 | 0.43 | 0.01 | 91 | 1010.2 |
| 20260904144604 | 49 | 224 | 0.0 | 0.0 | 0.00 | 0.43 | 0.01 | 91 | 1010.2 |
| 20260904144107 | 48 | 224 | 0.0 | 0.0 | 0.00 | 0.43 | 0.01 | 90 | 1010.2 |
| 20260904143604 | 48 | 224 | 0.0 | 0.0 | 0.00 | 0.43 | 0.01 | 90 | 1010.2 |
| 20260904143104 | 48 | 224 | 0.0 | 0.0 | 0.00 | 0.43 | 0.01 | 90 | 1010.2 |
| 20260904142104 | 48 | 224 | 0.0 | 0.0 | 0.00 | 0.43 | 0.01 | 90 | 1010.1 |
| 20260904141604 | 48 | 224 | 0.0 | 0.0 | 0.00 | 0.43 | 0.01 | 90 | 1010.0 |
| 20260904141104 | 48 | 224 | 0.0 | 0.0 | 0.00 | 0.43 | 0.01 | 90 | 1009.9 |
| 20260904140605 | 48 | 224 | 0.0 | 0.0 | 0.00 | 0.43 | 0.01 | 90 | 1009.8 |
| 20260904135604 | 48 | 224 | 0.0 | 0.0 | 0.00 | 0.43 | 0.01 | 90 | 1009.7 |
| 20260904135104 | 48 | 224 | 0.0 | 0.0 | 0.00 | 0.43 | 0.01 | 90 | 1009.6 |
| 20260904134604 | 48 | 224 | 0.0 | 0.0 | 0.00 | 0.43 | 0.01 | 90 | 1009.5 |
| 20260904134105 | 48 | 224 | 0.0 | 0.0 | 0.00 | 0.43 | 0.01 | 90 | 1009.5 |
| 20260904133604 | 48 | 224 | 0.0 | 0.0 | 0.00 | 0.43 | 0.01 | 90 | 1009.4 |
| 20260904133104 | 48 | 224 | 0.0 | 0.0 | 0.00 | 0.43 | 0.01 | 90 | 1009.3 |
| 20260904131603 | 48 | 224 | 0.0 | 0.0 | 0.00 | 0.43 | 0.01 | 90 | 1009.2 |
| 20260904131104 | 48 | 224 | 0.0 | 0.0 | 0.00 | 0.43 | 0.01 | 90 | 1009.1 |
| 20260904130605 | 48 | 224 | 0.0 | 0.0 | 0.00 | 0.43 | 0.01 | 90 | 1009.0 |
| 20260904130104 | 48 | 224 | 0.0 | 0.0 | 0.00 | 0.43 | 0.01 | 90 | 1008.9 |
| 20260904125604 | 48 | 224 | 0.0 | 0.0 | 0.00 | 0.43 | 0.01 | 90 | 1008.9 |
| 20260904124604 | 48 | 224 | 0.0 | 0.0 | 0.00 | 0.43 | 0.01 | 90 | 1008.9 |
| 20260904124103 | 49 | 224 | 0.0 | 0.0 | 0.00 | 0.43 | 0.01 | 90 | 1009.0 |
| 20260904123106 | 49 | 224 | 0.0 | 0.0 | 0.00 | 0.44 | 0.01 | 90 | 1008.9 |
| 20260904122107 | 49 | 224 | 0.0 | 0.0 | 0.00 | 0.45 | 0.01 | 90 | 1009.0 |
| 20260904121606 | 49 | 224 | 0.0 | 0.0 | 0.00 | 0.46 | 0.01 | 90 | 1008.9 |
| 20260904121104 | 49 | 224 | 0.0 | 0.0 | 0.00 | 0.46 | 0.01 | 90 | 1008.9 |
| 20260904120606 | 49 | 224 | 0.0 | 0.0 | 0.00 | 0.46 | 0.01 | 90 | 1008.9 |
| 20260904115603 | 49 | 224 | 0.0 | 0.0 | 0.00 | 0.48 | 0.01 | 90 | 1008.9 |
| 20260904115104 | 49 | 224 | 0.0 | 0.0 | 0.00 | 0.50 | 0.01 | 90 | 1008.8 |
| 20260904114604 | 49 | 224 | 0.0 | 0.0 | 0.00 | 0.51 | 0.01 | 90 | 1008.8 |
| 20260904114105 | 50 | 224 | 0.0 | 0.0 | 0.00 | 0.52 | 0.01 | 90 | 1008.8 |
| 20260904113606 | 50 | 224 | 0.0 | 0.0 | 0.00 | 0.55 | 0.01 | 90 | 1008.8 |
| 20260904113104 | 50 | 224 | 0.0 | 0.0 | 0.00 | 0.58 | 0.01 | 90 | 1008.7 |
| 20260904112604 | 50 | 224 | 0.0 | 0.0 | 0.00 | 0.59 | 0.01 | 90 | 1008.6 |
| 20260904112104 | 50 | 224 | 0.0 | 0.0 | 0.00 | 0.59 | 0.01 | 90 | 1008.6 |
| 20260904111103 | 50 | 224 | 0.0 | 0.0 | 0.00 | 0.59 | 0.01 | 90 | 1008.5 |
| 20260904110604 | 50 | 224 | 0.0 | 0.0 | 0.00 | 0.59 | 0.01 | 90 | 1008.4 |
| 20260904105603 | 50 | 224 | 0.0 | 0.0 | 0.00 | 0.59 | 0.01 | 90 | 1008.4 |
| 20260904105103 | 50 | 224 | 0.0 | 0.0 | 0.00 | 0.59 | 0.01 | 90 | 1008.4 |
| 20260904104604 | 50 | 224 | 0.0 | 0.0 | 0.00 | 0.60 | 0.01 | 90 | 1008.5 |
| 20260904104103 | 50 | 224 | 0.0 | 0.0 | 0.00 | 0.60 | 0.01 | 90 | 1008.5 |
| 20260904102604 | 50 | 224 | 0.0 | 0.0 | 0.00 | 0.60 | 0.01 | 90 | 1008.4 |
| 20260904101604 | 50 | 224 | 0.0 | 0.0 | 0.00 | 0.61 | 0.01 | 89 | 1008.4 |
| 20260904100603 | 50 | 224 | 0.0 | 0.0 | 0.00 | 0.61 | 0.01 | 89 | 1008.4 |
| 20260904100104 | 50 | 224 | 0.0 | 0.0 | 0.00 | 0.61 | 0.01 | 89 | 1008.5 |
| 20260904095605 | 50 | 224 | 0.0 | 0.0 | 0.00 | 0.62 | 0.01 | 89 | 1008.6 |
| 20260904095104 | 51 | 224 | 0.0 | 0.0 | 0.01 | 0.62 | 0.01 | 89 | 1008.6 |
| 20260904094603 | 51 | 224 | 0.0 | 0.0 | 0.01 | 0.62 | 0.01 | 89 | 1008.6 |
| 20260904093605 | 51 | 224 | 0.0 | 0.0 | 0.01 | 0.63 | 0.01 | 89 | 1008.5 |
| 20260904093104 | 51 | 224 | 0.0 | 0.0 | 0.01 | 0.63 | 0.01 | 89 | 1008.5 |
| 20260904092604 | 51 | 224 | 0.0 | 0.0 | 0.01 | 0.63 | 0.01 | 89 | 1008.4 |
| 20260904092104 | 52 | 224 | 0.0 | 0.0 | 0.01 | 0.63 | 0.01 | 89 | 1008.4 |
| 20260904091603 | 52 | 224 | 0.0 | 0.0 | 0.01 | 0.63 | 0.01 | 89 | 1008.5 |
| 20260904091106 | 52 | 224 | 0.0 | 0.0 | 0.01 | 0.63 | 0.01 | 90 | 1008.5 |
| 20260904090606 | 52 | 224 | 0.0 | 0.0 | 0.01 | 0.66 | 0.01 | 89 | 1008.5 |
| 20260904090106 | 52 | 224 | 0.0 | 0.0 | 0.01 | 0.68 | 0.01 | 89 | 1008.5 |
| 20260904085605 | 52 | 224 | 0.0 | 0.0 | 0.01 | 0.70 | 0.01 | 89 | 1008.6 |
| 20260904084606 | 52 | 224 | 0.0 | 0.0 | 0.00 | 0.70 | 0.00 | 89 | 1008.5 |
| 20260904084105 | 52 | 224 | 0.0 | 0.0 | 0.00 | 0.70 | 0.00 | 89 | 1008.5 |
| 20260904083606 | 52 | 224 | 0.0 | 0.0 | 0.00 | 0.71 | 0.00 | 89 | 1008.5 |
| 20260904083105 | 52 | 224 | 0.0 | 0.0 | 0.00 | 0.71 | 0.00 | 89 | 1008.5 |
| 20260904082606 | 52 | 224 | 0.0 | 2.0 | 0.00 | 0.72 | 0.00 | 89 | 1008.5 |
| 20260904082105 | 53 | 224 | 0.0 | 2.0 | 0.00 | 0.73 | 0.00 | 89 | 1008.4 |
| 20260904081606 | 53 | 224 | 0.0 | 0.0 | 0.00 | 0.77 | 0.00 | 89 | 1008.4 |
| 20260904081105 | 53 | 224 | 0.0 | 0.0 | 0.00 | 0.79 | 0.00 | 89 | 1008.3 |
| 20260904080605 | 53 | 224 | 0.0 | 0.0 | 0.00 | 0.79 | 0.00 | 89 | 1008.2 |
| 20260904080106 | 53 | 224 | 0.0 | 0.0 | 0.00 | 0.79 | 0.00 | 89 | 1008.2 |
| 20260904075606 | 53 | 224 | 0.0 | 0.0 | 0.00 | 0.80 | 0.00 | 89 | 1008.2 |
| 20260904075107 | 53 | 224 | 0.0 | 0.0 | 0.00 | 0.81 | 0.00 | 89 | 1008.3 |
| 20260904074605 | 53 | 224 | 0.0 | 0.0 | 0.00 | 0.84 | 0.00 | 89 | 1008.2 |
| 20260904074106 | 53 | 224 | 0.0 | 0.0 | 0.00 | 0.87 | 0.00 | 89 | 1008.1 |
| 20260904073605 | 53 | 224 | 0.0 | 0.0 | 0.00 | 0.87 | 0.00 | 89 | 1008.1 |
| 20260904073106 | 53 | 224 | 0.0 | 0.0 | 0.00 | 0.87 | 0.00 | 89 | 1008.0 |
| 20260904072105 | 53 | 224 | 0.0 | 1.0 | 0.00 | 0.87 | 0.00 | 89 | 1008.0 |
| 20260904071606 | 53 | 224 | 0.0 | 1.0 | 0.00 | 0.87 | 0.00 | 89 | 1008.0 |
| 20260904071109 | 53 | 224 | 0.0 | 2.0 | 0.00 | 0.88 | 0.00 | 89 | 1008.0 |
| 20260904070605 | 53 | 224 | 0.0 | 2.0 | 0.00 | 0.90 | 0.00 | 89 | 1007.9 |
| 20260904070106 | 53 | 224 | 0.0 | 2.0 | 0.00 | 0.91 | 0.00 | 89 | 1007.9 |
| 20260904064606 | 53 | 224 | 0.0 | 0.0 | 0.00 | 0.97 | 0.91 | 89 | 1008.0 |
| 20260904064105 | 53 | 224 | 0.0 | 0.0 | 0.00 | 0.97 | 0.91 | 89 | 1008.0 |
| 20260904063605 | 53 | 224 | 0.0 | 0.0 | 0.00 | 0.97 | 0.91 | 89 | 1008.0 |
| 20260904063106 | 54 | 224 | 0.0 | 1.0 | 0.00 | 0.97 | 0.91 | 89 | 1008.0 |
| 20260904062606 | 54 | 224 | 0.0 | 2.0 | 0.00 | 0.97 | 0.91 | 89 | 1008.0 |
| 20260904062107 | 54 | 224 | 0.0 | 2.0 | 0.00 | 0.97 | 0.91 | 89 | 1008.0 |
| 20260904061606 | 53 | 224 | 0.0 | 1.0 | 0.00 | 0.97 | 0.91 | 88 | 1007.9 |
| 20260904060606 | 54 | 224 | 0.0 | 0.0 | 0.00 | 0.98 | 0.91 | 88 | 1008.1 |
| 20260904060106 | 54 | 224 | 0.0 | 1.0 | 0.00 | 0.99 | 0.91 | 88 | 1008.0 |
| 20260904055605 | 54 | 224 | 0.0 | 2.0 | 0.00 | 0.99 | 0.91 | 88 | 1008.0 |
| 20260904055106 | 54 | 224 | 0.0 | 2.0 | 0.00 | 0.99 | 0.91 | 88 | 1007.9 |
| 20260904054105 | 54 | 224 | 0.0 | 0.0 | 0.00 | 0.99 | 0.91 | 88 | 1008.0 |
| 20260904053605 | 54 | 224 | 0.0 | 0.0 | 0.00 | 0.99 | 0.91 | 88 | 1008.0 |
| 20260904053106 | 54 | 224 | 0.0 | 0.0 | 0.00 | 0.99 | 0.91 | 88 | 1008.0 |
| 20260904052605 | 54 | 224 | 0.0 | 0.0 | 0.00 | 0.99 | 0.91 | 88 | 1008.0 |
| 20260904051605 | 54 | 224 | 0.0 | 0.0 | 0.00 | 0.99 | 0.91 | 88 | 1008.0 |
| 20260904051105 | 54 | 224 | 0.0 | 0.0 | 0.00 | 0.99 | 0.91 | 88 | 1008.1 |
| 20260904050106 | 54 | 224 | 0.0 | 1.0 | 0.00 | 0.99 | 0.91 | 88 | 1008.1 |
| 20260904045605 | 54 | 224 | 0.0 | 1.0 | 0.00 | 0.99 | 0.91 | 88 | 1008.1 |
| 20260904045106 | 54 | 224 | 0.0 | 0.0 | 0.00 | 0.99 | 0.91 | 88 | 1008.1 |
| 20260904044605 | 54 | 224 | 0.0 | 1.0 | 0.00 | 0.99 | 0.91 | 88 | 1008.1 |
| 20260904044105 | 54 | 224 | 0.0 | 1.0 | 0.00 | 0.99 | 0.91 | 87 | 1008.1 |
| 20260904043606 | 54 | 224 | 0.0 | 1.0 | 0.00 | 0.99 | 0.91 | 87 | 1008.1 |
| 20260904043105 | 54 | 224 | 0.0 | 2.0 | 0.00 | 0.99 | 0.91 | 87 | 1008.1 |
| 20260904042605 | 54 | 224 | 0.0 | 2.0 | 0.00 | 0.99 | 0.91 | 87 | 1008.1 |
| 20260904042106 | 54 | 224 | 0.0 | 2.0 | 0.00 | 0.99 | 0.91 | 87 | 1008.1 |
| 20260904041606 | 54 | 224 | 0.0 | 0.0 | 0.00 | 0.99 | 0.91 | 86 | 1008.0 |
| 20260904041106 | 54 | 224 | 0.0 | 0.0 | 0.00 | 0.99 | 0.91 | 87 | 1008.0 |
| 20260904040605 | 55 | 224 | 0.0 | 0.0 | 0.00 | 0.99 | 0.91 | 86 | 1008.1 |
| 20260904040105 | 55 | 224 | 0.0 | 0.0 | 0.00 | 0.99 | 0.91 | 86 | 1008.0 |
| 20260904035105 | 55 | 224 | 0.0 | 0.0 | 0.00 | 0.99 | 0.91 | 86 | 1007.9 |
| 20260904034605 | 55 | 224 | 0.0 | 0.0 | 0.00 | 0.99 | 0.91 | 86 | 1007.8 |
| 20260904034105 | 55 | 224 | 0.0 | 0.0 | 0.00 | 0.99 | 0.91 | 86 | 1007.8 |
| 20260904033605 | 55 | 224 | 0.0 | 0.0 | 0.00 | 0.99 | 0.91 | 86 | 1007.7 |
| 20260904033105 | 56 | 224 | 0.0 | 0.0 | 0.00 | 0.99 | 0.91 | 86 | 1007.6 |
| 20260904032605 | 56 | 224 | 0.0 | 0.0 | 0.00 | 0.99 | 0.91 | 86 | 1007.6 |
| 20260904032107 | 56 | 224 | 0.0 | 0.0 | 0.00 | 0.99 | 0.91 | 86 | 1007.5 |
| 20260904031608 | 56 | 224 | 0.0 | 1.0 | 0.01 | 0.99 | 0.91 | 86 | 1007.5 |
| 20260904031105 | 56 | 224 | 0.0 | 1.0 | 0.01 | 0.99 | 0.91 | 86 | 1007.4 |
| 20260904030105 | 57 | 224 | 0.0 | 2.0 | 0.02 | 0.99 | 0.91 | 86 | 1007.4 |
| 20260904025606 | 57 | 224 | 0.0 | 2.0 | 0.03 | 0.99 | 0.91 | 86 | 1007.4 |
| 20260904025106 | 57 | 224 | 0.0 | 0.0 | 0.03 | 0.99 | 0.91 | 86 | 1007.4 |
| 20260904024605 | 57 | 224 | 0.0 | 0.0 | 0.04 | 0.99 | 0.91 | 86 | 1007.3 |
| 20260904024105 | 57 | 224 | 0.0 | 0.0 | 0.04 | 0.99 | 0.91 | 86 | 1007.2 |
| 20260904023605 | 57 | 224 | 0.0 | 0.0 | 0.05 | 0.99 | 0.91 | 86 | 1007.2 |
| 20260904023105 | 57 | 224 | 0.0 | 0.0 | 0.06 | 0.99 | 0.91 | 86 | 1007.2 |
| 20260904022606 | 57 | 224 | 0.0 | 0.0 | 0.07 | 0.99 | 0.91 | 85 | 1007.2 |
| 20260904022105 | 57 | 224 | 0.0 | 0.0 | 0.09 | 0.99 | 0.91 | 85 | 1007.2 |
| 20260904021605 | 57 | 224 | 0.0 | 0.0 | 0.11 | 0.98 | 0.90 | 85 | 1007.2 |
| 20260904020605 | 57 | 224 | 0.0 | 0.0 | 0.15 | 0.97 | 0.89 | 85 | 1007.1 |
| 20260904020104 | 58 | 224 | 0.0 | 0.0 | 0.17 | 0.97 | 0.89 | 85 | 1007.2 |
| 20260904015105 | 58 | 224 | 0.0 | 0.0 | 0.22 | 0.96 | 0.88 | 84 | 1007.3 |
| 20260904014607 | 58 | 224 | 0.0 | 0.0 | 0.24 | 0.95 | 0.87 | 84 | 1007.3 |
| 20260904014113 | 58 | 224 | 0.0 | 0.0 | 0.26 | 0.95 | 0.87 | 84 | 1007.4 |
| 20260904013105 | 58 | 224 | 0.0 | 0.0 | 0.27 | 0.93 | 0.85 | 83 | 1007.4 |
| 20260904012105 | 59 | 224 | 0.0 | 1.0 | 0.25 | 0.90 | 0.82 | 83 | 1007.5 |
| 20260904011634 | 59 | 250 | 0.0 | 0.0 | 0.22 | 0.87 | 0.79 | 83 | 1007.6 |
| 20260904011105 | 59 | 224 | 0.0 | 2.0 | 0.21 | 0.86 | 0.78 | 83 | 1007.5 |
| 20260904010605 | 60 | 224 | 0.0 | 2.0 | 0.18 | 0.83 | 0.75 | 82 | 1007.4 |
| 20260904005604 | 61 | 224 | 0.0 | 3.0 | 0.13 | 0.78 | 0.70 | 82 | 1007.3 |
| 20260904005106 | 61 | 224 | 0.0 | 1.0 | 0.10 | 0.75 | 0.67 | 82 | 1007.4 |
| 20260904004606 | 61 | 224 | 0.0 | 0.0 | 0.07 | 0.72 | 0.64 | 82 | 1007.4 |
| 20260904004105 | 62 | 224 | 0.0 | 0.0 | 0.05 | 0.70 | 0.62 | 82 | 1007.3 |
| 20260904003605 | 62 | 224 | 0.0 | 0.0 | 0.03 | 0.68 | 0.60 | 81 | 1007.3 |
| 20260904003105 | 62 | 224 | 0.0 | 0.0 | 0.01 | 0.66 | 0.58 | 81 | 1007.2 |
| 20260904002604 | 62 | 224 | 0.0 | 0.0 | 0.02 | 0.66 | 0.58 | 81 | 1007.2 |
| 20260904002104 | 63 | 224 | 0.0 | 0.0 | 0.02 | 0.65 | 0.57 | 82 | 1007.1 |
| 20260904001606 | 63 | 224 | 0.0 | 0.0 | 0.02 | 0.65 | 0.57 | 82 | 1007.1 |
| 20260904001105 | 63 | 224 | 0.0 | 0.0 | 0.02 | 0.65 | 0.57 | 82 | 1007.0 |
| 20260904000606 | 63 | 224 | 0.0 | 0.0 | 0.02 | 0.65 | 0.57 | 82 | 1006.9 |
| 20260904000105 | 63 | 224 | 0.0 | 0.0 | 0.02 | 0.65 | 0.57 | 82 | 1006.9 |
| 20260903235605 | 63 | 224 | 0.0 | 0.0 | 0.02 | 0.65 | 0.57 | 81 | 1006.9 |
| 20260903235105 | 63 | 224 | 0.0 | 0.0 | 0.02 | 0.65 | 0.57 | 80 | 1006.8 |
| 20260903234608 | 63 | 224 | 0.0 | 0.0 | 0.02 | 0.65 | 0.57 | 79 | 1006.8 |